Weather History for Meriden, CT

Change the Weather History Date:

Wednesday, November 21, 2012

  Actual Average (KHVN) Record (KHVN)
Temperature  
Mean Temperature 43 °F -  
Max Temperature 53 °F 49 °F 65 °F (1991)
Min Temperature 32 °F 35 °F 21 °F (2008)
Degree Days  
Heating Degree Days 22    
Moisture  
Dew Point 29 °F    
Average Humidity 68    
Maximum Humidity 88    
Minimum Humidity 41    
Precipitation  
Precipitation 0.00 in - - ()
Sea Level Pressure  
Sea Level Pressure 30.21 in    
Wind  
Wind Speed 2 mph (North)    
Max Wind Speed 10 mph    
Max Gust Speed -    
Visibility 10 miles    
Events      
Averages and records for this station are not official NWS values.
T = Trace of Precipitation, MM = Missing Value Source: NWS Daily Summary

Daily Weather History Graph

Daily Weather History Graph

Search for Another Location

Airport:

Trip Planner

Search our weather history database for the weather conditions in past years. The results will help you decide how hot, cold, wet, or windy it might be!

Date:

Astronomy

Nov. 21, 2012 Rise Set
Actual Time 6:47 AM EST 4:26 PM EST
Civil Twilight 6:17 AM EST 4:56 PM EST
Nautical Twilight 5:43 AM EST 5:30 PM EST
Astronomical Twilight 5:10 AM EST 6:03 PM EST
Moon 12:46 PM EST (11/21) No Moon Set
Length of Visible Light 10h 39m
Length of Day
9h 38m
First Quarter, 61% of the Moon is Illuminated
Nov 21
First Quarter
Nov 28
Full
Dec 6
Last Quarter
Dec 13
New
Dec 20
First Quarter

Hourly Weather History & Observations

Time (EST) Temp. Windchill Dew Point Humidity Pressure Visibility Wind Dir Wind Speed Gust Speed Precip Events Conditions
12:53 AM 34.0 °F - 28.9 °F 82% 30.17 in 8.0 mi Calm Calm - N/A   Clear
1:53 AM 33.1 °F - 28.0 °F 82% 30.17 in 8.0 mi Calm Calm - N/A   Clear
2:53 AM 33.1 °F - 28.9 °F 85% 30.17 in 10.0 mi Calm Calm - N/A   Clear
3:53 AM 33.1 °F - 28.0 °F 82% 30.18 in 10.0 mi Calm Calm - N/A   Clear
4:53 AM 34.0 °F - 28.0 °F 79% 30.19 in 10.0 mi Calm Calm - N/A   Clear
5:53 AM 34.0 °F - 28.0 °F 79% 30.21 in 10.0 mi Calm Calm - N/A   Clear
6:53 AM 33.1 °F - 28.0 °F 82% 30.22 in 10.0 mi Calm Calm - N/A   Clear
7:53 AM 37.9 °F 34.4 °F 26.1 °F 62% 30.23 in 10.0 mi NNE 4.6 mph - N/A   Clear
8:53 AM 42.1 °F 40.2 °F 27.0 °F 55% 30.23 in 10.0 mi Variable 3.5 mph - N/A   Clear
9:53 AM 45.0 °F 39.7 °F 26.1 °F 48% 30.23 in 10.0 mi North 10.4 mph - N/A   Clear
10:53 AM 48.9 °F - 30.0 °F 48% 30.23 in 10.0 mi NNE 6.9 mph - N/A   Clear
11:53 AM 51.1 °F - 33.1 °F 50% 30.21 in 10.0 mi Variable 5.8 mph - N/A   Clear
12:53 PM 53.1 °F - 30.0 °F 41% 30.19 in 10.0 mi North 5.8 mph - N/A   Clear
1:53 PM 52.0 °F - 30.9 °F 45% 30.18 in 10.0 mi Variable 4.6 mph - N/A   Clear
2:53 PM 52.0 °F - 32.0 °F 47% 30.18 in 10.0 mi NNE 4.6 mph - N/A   Clear
3:53 PM 51.1 °F - 30.9 °F 46% 30.19 in 10.0 mi North 9.2 mph - N/A   Clear
4:53 PM 45.0 °F - 30.0 °F 56% 30.21 in 10.0 mi Calm Calm - N/A   Clear
5:53 PM 41.0 °F - 30.0 °F 65% 30.22 in 10.0 mi Calm Calm - N/A   Clear
6:53 PM 36.0 °F - 30.0 °F 79% 30.24 in 10.0 mi Calm Calm - N/A   Clear
7:53 PM 36.0 °F - 30.9 °F 82% 30.25 in 10.0 mi Calm Calm - N/A   Clear
8:53 PM 35.1 °F - 28.9 °F 78% 30.26 in 8.0 mi Calm Calm - N/A   Clear
9:53 PM 34.0 °F - 28.9 °F 82% 30.26 in 9.0 mi Calm Calm - N/A   Clear
10:53 PM 33.1 °F - 28.9 °F 85% 30.25 in 8.0 mi Calm Calm - N/A   Clear
11:53 PM 32.0 °F - 28.9 °F 88% 30.26 in 8.0 mi Calm Calm - N/A   Clear